| time (UTC) | temp F | wind direction | speed knots | gust knots | rain 1hr in | rain 24hr in | rain mn in | humidity % | barometer mb |
| 20260504001926 | 81 | 236 | 1.7 | 2.6 | 0.00 | 0.00 | 0.00 | 34 | 1010.0 |
| 20260504001426 | 82 | 96 | 3.5 | 4.3 | 0.00 | 0.00 | 0.00 | 32 | 1010.0 |
| 20260504000928 | 82 | 138 | 1.7 | 3.5 | 0.00 | 0.00 | 0.00 | 37 | 1010.0 |
| 20260504000426 | 82 | 108 | 2.6 | 3.5 | 0.00 | 0.00 | 0.00 | 35 | 1010.0 |
| 20260503235926 | 82 | 121 | 1.7 | 2.6 | 0.00 | 0.00 | 0.00 | 35 | 1010.0 |
| 20260503235426 | 82 | 100 | 2.6 | 3.5 | 0.00 | 0.00 | 0.00 | 32 | 1010.0 |
| 20260503234927 | 82 | 151 | 0.9 | 2.6 | 0.00 | 0.00 | 0.00 | 35 | 1010.0 |
| 20260503234426 | 82 | 54 | 0.9 | 2.6 | 0.00 | 0.00 | 0.00 | 35 | 1010.0 |
| 20260503233926 | 82 | 79 | 1.7 | 2.6 | 0.00 | 0.00 | 0.00 | 35 | 1010.0 |
| 20260503233426 | 82 | 114 | 1.7 | 3.5 | 0.00 | 0.00 | 0.00 | 35 | 1010.0 |
| 20260503232926 | 82 | 110 | 2.6 | 3.5 | 0.00 | 0.00 | 0.00 | 36 | 1010.0 |
| 20260503232426 | 82 | 90 | 2.6 | 3.5 | 0.00 | 0.00 | 0.00 | 37 | 1010.0 |
| 20260503231926 | 82 | 120 | 2.6 | 4.3 | 0.00 | 0.00 | 0.00 | 35 | 1010.0 |
| 20260503231426 | 82 | 108 | 1.7 | 3.5 | 0.00 | 0.00 | 0.00 | 36 | 1011.0 |
| 20260503230926 | 82 | 95 | 3.5 | 4.3 | 0.00 | 0.00 | 0.00 | 36 | 1011.0 |
| 20260503230427 | 82 | 25 | 1.7 | 2.6 | 0.00 | 0.00 | 0.00 | 34 | 1011.0 |
| 20260503225926 | 82 | 41 | 2.6 | 4.3 | 0.00 | 0.00 | 0.00 | 35 | 1011.0 |
| 20260503225426 | 81 | 31 | 2.6 | 5.2 | 0.00 | 0.00 | 0.00 | 35 | 1011.0 |
| 20260503224928 | 81 | 48 | 1.7 | 4.3 | 0.00 | 0.00 | 0.00 | 35 | 1011.0 |
| 20260503224427 | 81 | 63 | 2.6 | 4.3 | 0.00 | 0.00 | 0.00 | 34 | 1011.0 |
| 20260503223926 | 81 | 49 | 3.5 | 5.2 | 0.00 | 0.00 | 0.00 | 33 | 1011.0 |
| 20260503223426 | 81 | 66 | 3.5 | 6.1 | 0.00 | 0.00 | 0.00 | 34 | 1011.0 |
| 20260503222926 | 81 | 97 | 3.5 | 5.2 | 0.00 | 0.00 | 0.00 | 36 | 1011.0 |
| 20260503222426 | 81 | 114 | 1.7 | 3.5 | 0.00 | 0.00 | 0.00 | 39 | 1011.0 |
| 20260503221927 | 81 | 53 | 2.6 | 5.2 | 0.00 | 0.00 | 0.00 | 36 | 1011.0 |
| 20260503221426 | 81 | 65 | 2.6 | 3.5 | 0.00 | 0.00 | 0.00 | 36 | 1011.0 |
| 20260503220926 | 81 | 37 | 2.6 | 5.2 | 0.00 | 0.00 | 0.00 | 35 | 1011.0 |
| 20260503220426 | 81 | 74 | 2.6 | 4.3 | 0.00 | 0.00 | 0.00 | 36 | 1011.0 |
| 20260503215926 | 81 | 28 | 1.7 | 3.5 | 0.00 | 0.00 | 0.00 | 36 | 1011.0 |
| 20260503215426 | 81 | 109 | 0.9 | 2.6 | 0.00 | 0.00 | 0.00 | 45 | 1012.0 |
| 20260503214927 | 81 | 23 | 1.7 | 5.2 | 0.00 | 0.00 | 0.00 | 37 | 1012.0 |
| 20260503214428 | 81 | 94 | 1.7 | 2.6 | 0.00 | 0.00 | 0.00 | 36 | 1012.0 |
| 20260503213927 | 81 | 61 | 2.6 | 4.3 | 0.00 | 0.00 | 0.00 | 37 | 1012.0 |
| 20260503213427 | 81 | 115 | 3.5 | 5.2 | 0.00 | 0.00 | 0.00 | 37 | 1012.0 |
| 20260503212926 | 80 | 131 | 2.6 | 5.2 | 0.00 | 0.00 | 0.00 | 36 | 1012.0 |
| 20260503212427 | 80 | 35 | 0.9 | 2.6 | 0.00 | 0.00 | 0.00 | 36 | 1012.0 |
| 20260503211929 | 80 | 90 | 3.5 | 4.3 | 0.00 | 0.00 | 0.00 | 35 | 1012.0 |
| 20260503211426 | 80 | 92 | 2.6 | 3.5 | 0.00 | 0.00 | 0.00 | 39 | 1012.0 |
| 20260503210926 | 80 | 7 | 1.7 | 3.5 | 0.00 | 0.00 | 0.00 | 39 | 1012.0 |
| 20260503210426 | 79 | 88 | 1.7 | 3.5 | 0.00 | 0.00 | 0.00 | 36 | 1012.0 |
| 20260503205926 | 79 | 85 | 3.5 | 5.2 | 0.00 | 0.00 | 0.00 | 38 | 1012.0 |
| 20260503205427 | 79 | 50 | 1.7 | 4.3 | 0.00 | 0.00 | 0.00 | 37 | 1012.0 |
| 20260503204926 | 80 | 103 | 1.7 | 3.5 | 0.00 | 0.00 | 0.00 | 46 | 1012.0 |
| 20260503204426 | 79 | 135 | 0.9 | 2.6 | 0.00 | 0.00 | 0.00 | 39 | 1012.0 |
| 20260503203927 | 80 | 123 | 1.7 | 3.5 | 0.00 | 0.00 | 0.00 | 43 | 1012.0 |
| 20260503203430 | 79 | 121 | 2.6 | 3.5 | 0.00 | 0.00 | 0.00 | 41 | 1012.0 |
| 20260503202926 | 79 | 74 | 1.7 | 4.3 | 0.00 | 0.00 | 0.00 | 42 | 1012.0 |
| 20260503202427 | 79 | 128 | 1.7 | 2.6 | 0.00 | 0.00 | 0.00 | 42 | 1013.0 |
| 20260503201927 | 78 | 104 | 1.7 | 3.5 | 0.00 | 0.00 | 0.00 | 42 | 1013.0 |
| 20260503201426 | 78 | 138 | 0.9 | 1.7 | 0.00 | 0.00 | 0.00 | 46 | 1013.0 |
| 20260503200926 | 77 | 57 | 4.3 | 7.8 | 0.00 | 0.00 | 0.00 | 42 | 1013.0 |
| 20260503200428 | 78 | 29 | 2.6 | 5.2 | 0.00 | 0.00 | 0.00 | 41 | 1013.0 |
| 20260503195927 | 78 | 13 | 1.7 | 3.5 | 0.00 | 0.00 | 0.00 | 41 | 1013.0 |
| 20260503195426 | 78 | 126 | 2.6 | 3.5 | 0.00 | 0.00 | 0.00 | 42 | 1013.0 |
| 20260503194927 | 77 | 54 | 0.9 | 1.7 | 0.00 | 0.00 | 0.00 | 42 | 1013.0 |
| 20260503194426 | 77 | 35 | 1.7 | 3.5 | 0.00 | 0.00 | 0.00 | 45 | 1013.0 |
| 20260503193926 | 76 | 47 | 2.6 | 5.2 | 0.00 | 0.00 | 0.00 | 42 | 1013.0 |
| 20260503193426 | 76 | 118 | 2.6 | 3.5 | 0.00 | 0.00 | 0.00 | 44 | 1013.0 |
| 20260503192927 | 76 | 92 | 1.7 | 2.6 | 0.00 | 0.00 | 0.00 | 44 | 1013.0 |
| 20260503192426 | 76 | 37 | 1.7 | 4.3 | 0.00 | 0.00 | 0.00 | 42 | 1013.0 |
| 20260503191926 | 76 | 30 | 1.7 | 5.2 | 0.00 | 0.00 | 0.00 | 42 | 1013.0 |
| 20260503191426 | 76 | 24 | 1.7 | 3.5 | 0.00 | 0.00 | 0.00 | 44 | 1013.0 |
| 20260503190927 | 76 | 67 | 2.6 | 4.3 | 0.00 | 0.00 | 0.00 | 42 | 1014.0 |
| 20260503190427 | 75 | 120 | 1.7 | 4.3 | 0.00 | 0.00 | 0.00 | 44 | 1014.0 |
| 20260503185928 | 74 | 128 | 2.6 | 5.2 | 0.00 | 0.00 | 0.00 | 45 | 1014.0 |
| 20260503185427 | 74 | 29 | 0.9 | 3.5 | 0.00 | 0.00 | 0.00 | 45 | 1014.0 |
| 20260503184927 | 74 | 10 | 3.5 | 5.2 | 0.00 | 0.00 | 0.00 | 46 | 1014.0 |
| 20260503184427 | 74 | 57 | 2.6 | 5.2 | 0.00 | 0.00 | 0.00 | 45 | 1014.0 |
| 20260503183927 | 74 | 107 | 2.6 | 4.3 | 0.00 | 0.00 | 0.00 | 45 | 1014.0 |
| 20260503183426 | 74 | 117 | 1.7 | 3.5 | 0.00 | 0.00 | 0.00 | 47 | 1014.0 |
| 20260503182926 | 73 | 33 | 2.6 | 10.4 | 0.00 | 0.00 | 0.00 | 45 | 1014.0 |
| 20260503182426 | 73 | 67 | 3.5 | 4.3 | 0.00 | 0.00 | 0.00 | 47 | 1014.0 |
| 20260503181926 | 73 | 51 | 3.5 | 6.1 | 0.00 | 0.00 | 0.00 | 46 | 1014.0 |
| 20260503181427 | 73 | 38 | 1.7 | 4.3 | 0.00 | 0.00 | 0.00 | 49 | 1014.0 |
| 20260503180928 | 73 | 56 | 2.6 | 5.2 | 0.00 | 0.00 | 0.00 | 47 | 1014.0 |
| 20260503180427 | 72 | 23 | 3.5 | 5.2 | 0.00 | 0.00 | 0.00 | 48 | 1014.0 |
| 20260503175926 | 72 | 15 | 1.7 | 3.5 | 0.00 | 0.00 | 0.00 | 47 | 1014.0 |
| 20260503175426 | 72 | 37 | 2.6 | 6.1 | 0.00 | 0.00 | 0.00 | 48 | 1014.0 |
| 20260503174927 | 72 | 81 | 2.6 | 5.2 | 0.00 | 0.00 | 0.00 | 48 | 1014.0 |
| 20260503174426 | 72 | 93 | 2.6 | 5.2 | 0.00 | 0.00 | 0.00 | 50 | 1014.0 |
| 20260503173927 | 72 | 61 | 1.7 | 4.3 | 0.00 | 0.00 | 0.00 | 49 | 1014.0 |
| 20260503173426 | 71 | 201 | 0.0 | 1.7 | 0.00 | 0.00 | 0.00 | 53 | 1014.0 |
| 20260503172926 | 71 | 63 | 4.3 | 7.0 | 0.00 | 0.00 | 0.00 | 51 | 1014.0 |
| 20260503172427 | 71 | 63 | 1.7 | 2.6 | 0.00 | 0.00 | 0.00 | 52 | 1014.0 |
| 20260503171926 | 71 | 64 | 3.5 | 6.1 | 0.00 | 0.00 | 0.00 | 50 | 1014.0 |
| 20260503171428 | 70 | 32 | 0.9 | 3.5 | 0.00 | 0.00 | 0.00 | 52 | 1014.0 |
| 20260503170926 | 70 | 30 | 3.5 | 6.1 | 0.00 | 0.00 | 0.00 | 51 | 1014.0 |
| 20260503170426 | 70 | 93 | 3.5 | 5.2 | 0.00 | 0.00 | 0.00 | 51 | 1014.0 |
| 20260503150927 | 58 | 151 | 0.9 | 1.7 | 0.00 | 0.00 | 0.00 | 84 | 1015.0 |
| 20260503150427 | 56 | 127 | 0.0 | 1.7 | 0.00 | 0.00 | 0.00 | 92 | 1015.0 |
| 20260503130926 | 44 | 347 | 0.0 | 0.9 | 0.00 | 0.00 | 0.00 | 96 | 1013.0 |
| 20260503130426 | 43 | 35 | 0.0 | 0.9 | 0.00 | 0.00 | 0.00 | 96 | 1013.0 |
| 20260503110426 | 45 | 46 | 0.0 | 0.0 | 0.00 | 0.00 | 0.00 | 96 | 1014.0 |
| 20260503090426 | 47 | 77 | 0.0 | 0.9 | 0.00 | 0.00 | 0.00 | 94 | 1014.0 |
| 20260503081426 | 48 | 352 | 0.0 | 0.9 | 0.00 | 0.00 | 0.00 | 93 | 1014.0 |
| 20260503080926 | 48 | 342 | 0.0 | 1.7 | 0.00 | 0.00 | 0.00 | 93 | 1014.0 |
| 20260503080426 | 48 | 89 | 0.0 | 0.9 | 0.00 | 0.00 | 0.00 | 92 | 1014.0 |
| 20260503072928 | 49 | 50 | 0.0 | 0.9 | 0.00 | 0.00 | 0.00 | 92 | 1014.0 |
| 20260503072426 | 49 | 5 | 0.0 | 0.9 | 0.00 | 0.00 | 0.00 | 92 | 1014.0 |
| 20260503071927 | 49 | 289 | 0.0 | 0.9 | 0.00 | 0.00 | 0.00 | 92 | 1014.0 |
| 20260503071427 | 49 | 346 | 0.0 | 0.9 | 0.00 | 0.00 | 0.00 | 91 | 1014.0 |
| 20260503070926 | 49 | 345 | 0.0 | 0.9 | 0.00 | 0.00 | 0.00 | 91 | 1014.0 |
| 20260503070429 | 50 | 8 | 0.0 | 0.9 | 0.00 | 0.00 | 0.00 | 91 | 1014.0 |
| 20260503054926 | 51 | 309 | 0.0 | 0.9 | 0.00 | 0.00 | 0.00 | 85 | 1013.0 |
| 20260503054426 | 52 | 314 | 0.0 | 0.9 | 0.00 | 0.00 | 0.00 | 85 | 1013.0 |
| 20260503053927 | 52 | 0 | 0.0 | 0.0 | 0.00 | 0.00 | 0.00 | 85 | 1013.0 |
| 20260503053427 | 52 | 21 | 0.0 | 0.9 | 0.00 | 0.00 | 0.00 | 85 | 1013.0 |
| 20260503052926 | 53 | 0 | 0.0 | 0.0 | 0.00 | 0.00 | 0.00 | 84 | 1013.0 |
| 20260503052426 | 53 | 321 | 0.9 | 0.9 | 0.00 | 0.00 | 0.00 | 82 | 1013.0 |
| 20260503051928 | 53 | 280 | 0.0 | 0.0 | 0.00 | 0.00 | 0.00 | 82 | 1013.0 |
| 20260503051427 | 54 | 333 | 0.0 | 0.9 | 0.00 | 0.00 | 0.00 | 81 | 1013.0 |
| 20260503050926 | 54 | 281 | 1.7 | 1.7 | 0.00 | 0.00 | 0.00 | 80 | 1013.0 |
| 20260503050426 | 54 | 274 | 0.9 | 1.7 | 0.00 | 0.00 | 0.00 | 81 | 1013.0 |
| 20260503045926 | 55 | 255 | 0.9 | 1.7 | 0.00 | 0.00 | 0.00 | 79 | 1013.0 |
| 20260503045427 | 55 | 282 | 0.9 | 1.7 | 0.00 | 0.00 | 0.00 | 77 | 1013.0 |
| 20260503044926 | 56 | 293 | 0.9 | 1.7 | 0.00 | 0.00 | 0.00 | 74 | 1013.0 |
| 20260503044426 | 56 | 290 | 1.7 | 1.7 | 0.00 | 0.00 | 0.00 | 73 | 1013.0 |
| 20260503043926 | 56 | 288 | 0.9 | 1.7 | 0.00 | 0.00 | 0.00 | 74 | 1013.0 |
| 20260503043426 | 56 | 289 | 0.9 | 1.7 | 0.00 | 0.00 | 0.00 | 75 | 1013.0 |
| 20260503042927 | 56 | 296 | 0.9 | 1.7 | 0.00 | 0.00 | 0.00 | 75 | 1013.0 |
| 20260503042426 | 57 | 287 | 0.9 | 1.7 | 0.00 | 0.00 | 0.00 | 73 | 1013.0 |
| 20260503041927 | 57 | 315 | 0.9 | 1.7 | 0.00 | 0.00 | 0.00 | 72 | 1013.0 |
| 20260503041427 | 58 | 311 | 0.9 | 1.7 | 0.00 | 0.00 | 0.00 | 72 | 1013.0 |
| 20260503040926 | 58 | 317 | 0.0 | 0.9 | 0.00 | 0.00 | 0.00 | 72 | 1013.0 |
| 20260503040426 | 59 | 325 | 0.9 | 1.7 | 0.00 | 0.00 | 0.00 | 70 | 1013.0 |
| 20260503035928 | 60 | 14 | 0.0 | 1.7 | 0.00 | 0.00 | 0.00 | 72 | 1013.0 |
| 20260503035427 | 60 | 290 | 0.0 | 0.9 | 0.00 | 0.00 | 0.00 | 69 | 1013.0 |
| 20260503034926 | 60 | 330 | 0.0 | 0.9 | 0.00 | 0.00 | 0.00 | 65 | 1013.0 |
| 20260503034427 | 60 | 339 | 0.9 | 1.7 | 0.00 | 0.00 | 0.00 | 71 | 1013.0 |
| 20260503033927 | 60 | 315 | 1.7 | 2.6 | 0.00 | 0.00 | 0.00 | 71 | 1013.0 |
| 20260503033426 | 60 | 292 | 1.7 | 2.6 | 0.00 | 0.00 | 0.00 | 67 | 1012.0 |
| 20260503032926 | 61 | 292 | 1.7 | 2.6 | 0.00 | 0.00 | 0.00 | 66 | 1012.0 |
| 20260503032428 | 62 | 309 | 0.9 | 1.7 | 0.00 | 0.00 | 0.00 | 68 | 1012.0 |
| 20260503031927 | 62 | 321 | 1.7 | 3.5 | 0.00 | 0.00 | 0.00 | 68 | 1013.0 |
| 20260503031426 | 62 | 312 | 1.7 | 2.6 | 0.00 | 0.00 | 0.00 | 67 | 1012.0 |
| 20260503030927 | 63 | 314 | 1.7 | 2.6 | 0.00 | 0.00 | 0.00 | 70 | 1012.0 |
| 20260503025944 | 64 | 352 | 1.7 | 2.6 | 0.00 | 0.00 | 0.00 | 65 | 1012.0 |
| 20260503025426 | 64 | 339 | 1.7 | 2.6 | 0.00 | 0.00 | 0.00 | 64 | 1012.0 |
| 20260503024928 | 65 | 337 | 1.7 | 2.6 | 0.00 | 0.00 | 0.00 | 57 | 1012.0 |
| 20260503024427 | 66 | 325 | 0.9 | 1.7 | 0.00 | 0.00 | 0.00 | 58 | 1012.0 |
| 20260503023926 | 66 | 296 | 0.0 | 0.9 | 0.00 | 0.00 | 0.00 | 57 | 1012.0 |
| 20260503023426 | 67 | 334 | 0.9 | 1.7 | 0.00 | 0.00 | 0.00 | 59 | 1012.0 |
| 20260503022927 | 67 | 300 | 0.9 | 1.7 | 0.00 | 0.00 | 0.00 | 56 | 1012.0 |
| 20260503022428 | 68 | 329 | 0.9 | 1.7 | 0.00 | 0.00 | 0.00 | 57 | 1012.0 |
| 20260503021927 | 69 | 332 | 1.7 | 1.7 | 0.00 | 0.00 | 0.00 | 51 | 1012.0 |
| 20260503021427 | 69 | 342 | 0.9 | 2.6 | 0.00 | 0.00 | 0.00 | 47 | 1012.0 |
| 20260503020928 | 70 | 2 | 0.9 | 1.7 | 0.00 | 0.00 | 0.00 | 49 | 1012.0 |
| 20260503020427 | 70 | 319 | 0.0 | 1.7 | 0.00 | 0.00 | 0.00 | 48 | 1012.0 |
| 20260503015928 | 71 | 40 | 1.7 | 3.5 | 0.00 | 0.00 | 0.00 | 44 | 1012.0 |
| 20260503015426 | 71 | 16 | 0.9 | 2.6 | 0.00 | 0.00 | 0.00 | 46 | 1012.0 |
| 20260503014926 | 71 | 59 | 1.7 | 5.2 | 0.00 | 0.00 | 0.00 | 45 | 1012.0 |
| 20260503014426 | 72 | 36 | 1.7 | 3.5 | 0.00 | 0.00 | 0.00 | 44 | 1013.0 |
| 20260503013926 | 72 | 328 | 1.7 | 3.5 | 0.00 | 0.00 | 0.00 | 44 | 1012.0 |
| 20260503013426 | 72 | 84 | 0.9 | 3.5 | 0.00 | 0.00 | 0.00 | 43 | 1012.0 |
| 20260503012928 | 72 | 2 | 0.9 | 2.6 | 0.00 | 0.00 | 0.00 | 44 | 1012.0 |
| 20260503012426 | 72 | 60 | 1.7 | 3.5 | 0.00 | 0.00 | 0.00 | 42 | 1012.0 |
| 20260503011926 | 73 | 348 | 0.0 | 1.7 | 0.00 | 0.00 | 0.00 | 44 | 1012.0 |
| 20260503011428 | 73 | 355 | 1.7 | 2.6 | 0.00 | 0.00 | 0.00 | 44 | 1012.0 |
| 20260503010927 | 74 | 11 | 0.9 | 2.6 | 0.00 | 0.00 | 0.00 | 44 | 1012.0 |
| 20260503010426 | 74 | 48 | 0.0 | 0.9 | 0.00 | 0.00 | 0.00 | 43 | 1012.0 |
| 20260503005926 | 74 | 2 | 1.7 | 2.6 | 0.00 | 0.00 | 0.00 | 42 | 1012.0 |
| 20260503005427 | 75 | 40 | 2.6 | 6.1 | 0.00 | 0.00 | 0.00 | 42 | 1012.0 |
| 20260503004926 | 75 | 64 | 0.9 | 3.5 | 0.00 | 0.00 | 0.00 | 41 | 1012.0 |
| 20260503004426 | 76 | 84 | 1.7 | 3.5 | 0.00 | 0.00 | 0.00 | 40 | 1013.0 |
| 20260503003927 | 76 | 76 | 1.7 | 3.5 | 0.00 | 0.00 | 0.00 | 41 | 1013.0 |
| 20260503003426 | 76 | 308 | 0.9 | 2.6 | 0.00 | 0.00 | 0.00 | 43 | 1013.0 |
| 20260503002926 | 76 | 63 | 0.9 | 1.7 | 0.00 | 0.00 | 0.00 | 44 | 1013.0 |
| 20260503002428 | 76 | 64 | 3.5 | 6.1 | 0.00 | 0.00 | 0.00 | 40 | 1013.0 |